Overview Statistics Trail Chart Weather Telemetry Raw packets
 

This is the latest recevied weather packets stored in our database for station/object KB8TTR. If no packets are shown the sender has not sent any weather packets the latest 10 day(s).

<< 103 104 105 106 107 108 109 >>
Time Temp. Humidity Pressure Rain* Wind** Luminosity Snow
1787839113 23.89° C 75% 1015.4 hPa 0 mm - 366 W/m² -
1787838812 23.89° C 77% 1015.5 hPa 0 mm - 354 W/m² -
1787838507 23.89° C 77% 1015.4 hPa 0 mm - 330 W/m² -
1787838206 23.89° C 77% 1015.3 hPa 0 mm - 312 W/m² -
1787837905 23.33° C 79% 1015.6 hPa 0 mm - 114 W/m² -
1787837604 23.89° C 78% 1015.4 hPa 0 mm - 177 W/m² -
1787837298 23.33° C 79% 1015.2 hPa 0 mm - 215 W/m² -
1787836994 23.33° C 80% 1015.2 hPa 0 mm - 176 W/m² -
1787836689 22.78° C 82% 1015.4 hPa 0 mm - 156 W/m² -
1787836383 22.78° C 82% 1015.1 hPa 0 mm - 136 W/m² -
1787836079 22.78° C 82% 1015 hPa 0 mm - 82 W/m² -
1787835775 22.22° C 84% 1015.2 hPa 0 mm - 70 W/m² -
1787835474 21.67° C 85% 1015.2 hPa 0 mm - 79 W/m² -
1787835169 21.67° C 85% 1014.9 hPa 0 mm - 65 W/m² -
1787834869 21.67° C 86% 1015 hPa 0 mm - 62 W/m² -
1787834570 21.11° C 87% 1014.8 hPa 0 mm - 60 W/m² -
1787834263 21.11° C 88% 1015 hPa 0 mm - 63 W/m² -
1787833959 20.56° C 89% 1015.1 hPa 0 mm - 56 W/m² -
1787833654 20.56° C 91% 1014.8 hPa 0 mm - 54 W/m² -
1787833350 20° C 91% 1014.8 hPa 0 mm - 52 W/m² -
1787833046 20° C 92% 1014.8 hPa 0 mm - 50 W/m² -
1787832741 20° C 94% 1014.9 hPa 0 mm - 48 W/m² -
1787832440 19.44° C 95% 1014.8 hPa 0 mm - 46 W/m² -
1787832140 19.44° C 96% 1014.8 hPa 0 mm - 49 W/m² -
1787831838 18.89° C 97% 1014.9 hPa 0 mm - 47 W/m² -

* Rain latest hour (hover to see other rain measurements)
** Current wind speed in m/s (hover to see current wind gust speed)